RH
100 100 100 100 100 100 100 100 100 94 100 97 91 99 93 85 82 70 82 76 74 75 67 68 79 89 85 77 61 54 58 55 52 36 25 39 52 71 100 91 71 64 33 14 12 12 12 14 15
100 100 100 100 100 100 100 100 100 100 100 100 100 100 100 100 97 84 79 76 90 95 100 100 91 88 78 78 75 57 46 40 48 36 39 80 86 94 81 84 60 32 15 13 13 13 13 14 14
100 100 100 100 100 100 100 100 100 100 100 100 100 100 98 95 95 93 85 93 100 100 100 100 90 84 80 68 66 58 43 38 45 54 75 88 88 83 82 60 33 16 14 14 14 13 12 12 14
100 100 100 100 100 100 100 98 91 100 100 100 100 100 100 100 100 100 100 100 100 100 93 93 82 82 78 62 59 53 51 59 91 97 91 82 93 77 62 38 17 15 15 14 14 14 13 11 11
100 100 100 100 100 100 100 100 100 100 100 100 100 100 100 100 100 99 98 90 86 88 95 100 98 84 69 51 58 63 92 98 97 92 100 91 81 69 40 18 13 15 14 14 16 15 14 13 11
100 100 100 100 100 100 100 100 100 100 100 100 100 90 90 99 100 100 100 100 100 100 100 95 80 72 61 84 96 95 100 99 100 100 100 87 76 44 20 14 17 19 19 18 18 17 15 14 14
100 100 100 100 98 100 100 100 100 100 100 100 93 90 100 100 100 100 100 100 100 100 100 78 77 79 100 96 97 100 100 100 98 92 88 69 52 22 22 23 21 19 19 17 17 17 16 15 15
94 100 100 100 100 100 100 100 100 100 100 100 100 98 100 100 100 100 100 100 100 91 79 73 72 99 100 100 100 100 99 100 100 97 77 56 23 19 25 22 21 20 20 16 16 16 15 16 18
87 100 100 100 100 100 100 100 100 100 100 100 93 90 98 100 100 100 99 99 99 84 90 96 89 100 100 100 94 100 100 100 86 70 50 23 18 21 21 19 19 17 15 15 16 18 17 18 19
89 100 100 100 100 100 100 100 100 100 100 100 100 100 99 100 99 100 95 87 100 100 100 100 100 100 100 100 100 100 97 86 77 60 39 22 23 20 19 18 17 16 15 14 17 19 21 20 20
100 100 100 100 100 100 100 89 97 94 95 100 92 92 88 94 98 100 100 100 100 100 100 100 100 100 100 100 100 94 98 89 82 72 41 20 22 19 17 15 16 16 18 20 19 20 23 27 27
100 100 100 100 100 100 100 100 100 100 91 83 100 100 100 100 100 100 100 100 100 100 100 100 100 100 100 96 88 96 100 100 96 90 60 92 53 22 20 18 20 21 20 20 22 35 38 40 43
99 100 100 100 100 100 100 100 100 100 100 100 100 100 100 100 100 100 100 100 100 100 100 100 100 100 100 97 96 100 100 100 100 100 100 87 44 27 21 18 21 25 27 31 38 40 42 39 41
88 100 100 100 100 100 100 100 100 100 100 100 100 100 100 100 100 100 100 100 100 100 100 100 100 98 91 98 100 100 97 100 100 100 94 70 34 25 19 27 37 37 40 41 39 36 33 32 34
94 100 100 100 100 100 100 100 100 100 100 100 100 100 100 100 100 100 100 98 80 100 100 99 84 49 39 45 97 100 100 85 90 100 57 35 19 20 28 36 38 41 36 36 40 38 34 38 43
66 68 100 100 100 100 100 100 100 100 100 99 100 96 85 78 93 58 51 45 75 84 69 32 45 35 40 35 98 100 99 87 68 35 24 20 23 35 46 45 42 40 39 38 36 35 39 41 42
67 63 78 96 82 60 88 99 97 98 78 87 91 95 69 25 33 42 49 45 47 41 35 62 94 83 60 37 38 63 30 22 22 21 21 19 20 26 40 48 54 52 46 44 42 39 38 42 43
72 66 62 61 56 48 44 45 47 56 64 79 70 30 37 52 49 45 42 43 40 30 53 52 83 82 42 31 21 21 22 21 22 22 20 19 29 41 48 50 50 47 45 43 42 41 40 41 38
48 49 51 46 40 32 26 23 26 26 31 37 48 46 40 34 31 28 33 30 30 34 60 24 16 15 15 16 18 20 21 23 22 18 26 49 48 42 38 36 34 32 31 33 37 37 36 35 37
23 24 25 18 25 39 46 52 47 44 41 32 26 24 25 24 25 30 30 26 22 19 16 16 16 17 18 18 21 24 22 19 18 25 47 51 42 38 35 33 30 29 31 32 32 30 30 33 35
20 30 50 57 59 49 43 38 25 23 20 23 27 24 21 18 23 24 26 21 17 16 18 19 19 18 18 19 19 18 18 23 38 52 53 46 44 42 38 32 28 29 30 30 33 35 39 46 50
54 42 28 32 26 18 15 14 15 16 16 16 16 21 23 20 19 19 18 16 16 17 16 17 16 16 17 17 17 27 43 55 55 49 43 42 38 32 30 36 37 35 36 39 42 50 57 60 60
18 18 17 17 17 17 17 16 16 17 22 20 21 19 20 21 20 20 16 16 16 16 17 16 16 17 20 30 45 52 49 48 48 44 40 41 48 52 58 54 56 51 51 51 56 60 63 60 58
19 19 19 19 20 19 20 20 21 24 24 27 32 31 28 24 24 22 23 21 21 25 20 24 34 45 51 55 53 53 63 56 49 47 53 58 61 58 51 51 57 66 70 69 69 63 54 47 41
26 22 21 21 23 21 25 26 26 28 28 32 32 32 34 37 39 38 28 22 38 42 53 56 55 56 57 59 54 45 40 40 42 50 56 51 56 70 76 78 71 63 63 60 51 46 36 27 21
45 46 50 55 53 55 53 55 48 38 41 35 44 46 57 58 54 30 31 45 48 57 58 50 46 48 53 54 51 50 51 59 57 56 69 76 70 62 56 55 61 59 50 46 38 29 18 13 10
58 57 57 55 51 47 45 47 45 46 36 34 34 38 42 44 40 32 31 28 33 39 43 49 55 51 52 52 51 49 48 56 63 59 52 53 61 65 62 53 48 45 43 36 23 12 10 8 7
47 44 49 50 46 42 39 38 38 38 34 35 32 34 31 29 30 33 33 40 51 50 47 43 46 44 43 45 51 56 53 55 53 55 60 65 60 58 54 51 44 34 18 12 8 8 7 6 5
41 37 41 48 47 38 32 34 34 35 39 39 36 37 38 37 34 35 37 39 37 38 39 38 41 49 52 48 42 51 65 65 64 66 62 58 57 50 40 35 25 15 8 8 7 6 5 4 4
45 54 49 35 44 60 58 55 53 51 44 43 43 43 40 40 47 51 53 51 48 51 55 61 57 49 50 64 76 67 61 62 61 60 62 51 44 38 32 29 14 8 7 8 6 4 4 3 3
Wind_Speed
89 89 87 86 85 85 82 78 77 79 77 75 72 74 77 79 80 81 82 82 83 84 85 84 84 87 88 88 91 94 97 102 101 104 106 107 109 112 113 107 94 79 85 66 45 25 24 22 22
84 88 88 87 84 83 78 73 74 78 76 75 74 74 74 76 76 78 79 82 80 79 81 83 85 86 87 91 96 99 100 101 102 108 107 107 110 112 100 81 83 75 60 39 23 20 25 23 24
80 82 82 86 86 78 74 81 82 77 79 79 80 80 79 75 74 76 77 75 75 78 81 84 86 91 94 97 100 101 101 105 106 106 107 109 108 91 73 77 63 46 34 26 25 25 29 26 24
87 82 88 84 84 82 84 85 79 81 78 78 77 82 85 76 74 75 75 75 79 83 87 89 94 93 97 99 102 105 105 104 103 105 106 104 77 70 62 56 42 33 32 31 31 31 32 33 34
93 88 89 84 87 85 84 82 74 77 75 72 74 75 77 79 82 85 85 85 88 89 89 89 92 94 96 102 102 104 103 104 102 102 89 76 66 58 50 41 37 34 37 35 33 36 37 37 38
95 90 87 80 79 82 85 83 78 78 76 74 76 87 84 85 83 80 77 80 78 80 85 90 94 96 98 97 96 99 99 98 95 83 70 64 57 50 42 39 36 35 37 37 39 40 42 42 41
102 100 91 83 85 82 81 83 78 78 81 71 86 87 80 84 86 84 82 80 81 85 87 95 93 95 93 96 98 99 100 95 80 65 57 53 49 40 38 36 36 39 40 41 44 47 47 48 44
87 94 94 85 81 85 84 84 83 76 73 82 84 82 84 83 83 85 84 79 84 90 92 92 95 93 95 95 93 99 95 82 59 53 51 48 43 42 42 43 43 45 51 51 52 51 51 49 44
74 80 84 87 87 86 84 87 83 82 83 88 90 89 85 86 87 85 85 85 86 87 88 90 94 94 96 96 97 90 73 60 54 52 47 45 45 43 42 45 46 47 52 52 50 48 47 46 44
66 62 62 83 87 88 89 83 82 88 88 87 85 83 86 86 89 83 83 83 84 88 88 90 92 94 96 87 82 63 54 48 50 49 48 46 47 50 54 51 52 53 53 53 49 47 44 44 43
63 58 63 62 72 85 79 89 83 86 87 82 82 81 84 85 80 79 82 83 89 90 91 93 89 79 79 70 59 48 44 47 48 50 49 47 51 52 54 55 55 53 50 50 50 47 44 44 46
69 63 64 64 62 74 81 76 64 77 88 93 74 74 79 79 81 83 84 87 88 85 81 71 71 69 62 62 51 42 42 47 46 49 46 47 53 54 53 50 48 49 51 52 50 46 48 48 48
71 69 66 65 69 79 76 72 72 69 71 79 78 76 78 81 83 83 84 85 87 89 82 67 68 57 55 47 45 38 38 43 44 50 52 56 56 51 50 49 50 51 49 48 49 51 51 51 51
70 77 66 70 69 72 75 74 75 75 76 73 76 78 82 81 81 82 86 86 84 69 72 66 56 48 43 42 45 50 50 39 44 49 55 58 54 56 52 47 52 53 51 51 52 52 53 57 57
63 72 69 72 67 70 75 74 71 75 73 70 73 77 77 82 84 83 81 81 83 58 54 52 47 43 44 47 47 48 54 54 49 58 60 63 63 59 54 54 54 55 54 53 54 58 59 58 59
53 58 65 69 73 65 67 73 76 76 74 76 78 82 87 87 86 81 82 69 55 45 42 40 44 50 49 46 50 53 54 54 49 54 60 63 62 61 60 61 62 61 61 60 61 62 63 63 63
42 45 54 65 68 67 68 71 73 76 80 79 79 79 75 68 62 56 54 52 46 45 41 36 38 50 52 49 55 62 59 53 57 60 62 62 60 62 64 66 67 65 67 68 68 68 66 66 67
38 41 48 52 52 55 61 67 71 71 72 77 73 61 51 49 47 44 42 47 46 42 37 39 45 50 49 50 53 56 57 60 61 66 68 64 63 64 67 69 69 69 71 74 75 75 75 74 76
36 41 44 42 43 44 46 49 53 48 45 44 41 44 45 45 43 39 42 43 44 39 37 43 48 52 51 50 53 57 60 63 66 67 65 65 66 67 69 72 74 76 78 79 81 82 83 84 85
35 39 41 39 40 38 34 36 39 37 36 40 41 41 41 40 40 38 40 42 45 42 45 46 47 49 50 53 57 62 65 68 71 67 67 70 71 74 76 79 82 84 85 87 88 90 91 93 94
29 31 31 31 34 36 35 34 37 36 34 34 36 39 41 40 40 40 41 42 43 44 45 47 48 51 53 57 61 65 69 70 69 71 73 77 80 82 85 88 90 90 90 92 94 97 99 101 104
23 27 32 33 31 31 29 26 27 28 30 32 34 35 38 37 37 39 41 42 43 44 46 50 52 54 57 61 64 66 68 70 72 75 80 83 86 90 93 94 96 99 101 103 106 108 111 113 115
20 21 22 24 25 27 26 26 24 28 32 34 34 36 40 42 42 46 44 44 44 46 50 53 54 56 60 62 63 65 67 70 75 81 86 92 96 98 101 104 107 109 112 114 118 121 125 128 129
17 19 22 25 27 28 27 24 21 29 32 32 36 39 40 41 45 48 50 51 50 53 53 53 54 58 59 60 64 67 71 76 80 86 91 95 100 103 107 110 114 118 122 127 131 134 135 134 132
14 16 16 17 18 13 13 14 14 17 20 25 29 30 29 31 36 42 44 44 48 51 54 56 56 57 61 64 67 72 76 80 85 89 94 99 105 110 114 117 120 124 129 136 139 137 133 129 125
3 1 3 6 8 8 11 14 17 17 19 19 23 26 29 35 40 41 39 44 47 52 56 60 62 65 68 71 74 78 81 85 90 95 100 105 111 116 121 124 128 132 136 133 130 130 127 124 118
3 6 8 10 12 13 14 18 20 24 26 26 27 31 34 37 41 43 45 48 51 55 57 59 64 66 69 72 75 79 84 90 94 100 107 112 117 122 126 130 131 131 129 128 130 125 119 114 107
6 8 10 13 15 14 15 18 20 23 25 29 31 34 38 40 41 45 48 49 52 55 59 62 64 67 71 75 80 85 92 97 103 109 114 117 121 128 129 131 128 128 125 121 119 115 109 104 100
12 14 15 18 21 24 22 24 27 29 33 35 35 36 39 42 44 45 47 51 55 58 60 62 67 72 76 81 86 91 98 104 110 115 118 123 127 127 125 123 123 122 118 113 109 102 98 94 91
16 16 20 22 22 29 32 32 35 38 38 40 43 45 46 47 49 50 52 55 56 59 63 66 71 76 81 86 92 99 104 108 115 120 125 129 126 124 123 123 120 114 108 103 98 93 89 84 79
Wind_Direction
234 234 236 238 243 246 249 249 252 256 257 261 262 264 265 266 268 270 273 278 279 281 282 284 285 285 288 292 294 296 297 298 298 299 302 303 301 304 304 303 307 308 313 308 301 307 315 332 333
235 235 237 237 238 240 243 247 249 251 256 260 265 267 267 269 272 274 276 278 281 282 282 283 286 288 290 292 295 297 299 300 299 300 302 304 304 303 305 305 312 310 300 290 290 311 323 328 332
234 233 234 236 235 235 245 246 246 249 254 259 261 263 266 269 271 273 275 277 278 279 280 282 287 289 292 294 296 297 300 301 301 301 301 303 303 303 307 311 305 292 284 281 289 302 313 322 321
229 235 233 233 235 237 240 243 247 250 253 259 261 264 265 268 270 271 273 275 278 280 284 285 289 291 293 296 295 298 301 302 301 301 302 301 301 307 308 301 289 278 276 277 294 304 311 315 320
228 234 235 239 237 240 241 244 246 250 251 254 257 261 265 268 269 273 276 278 280 282 285 286 289 293 294 294 296 299 299 299 300 301 298 299 305 306 296 286 284 284 286 288 295 298 310 316 319
226 233 236 235 240 242 242 244 246 251 253 258 258 261 264 266 270 274 277 279 282 283 282 287 289 291 293 294 297 297 298 298 298 298 302 303 302 300 287 284 287 289 291 297 301 303 304 310 314
226 231 232 236 237 239 243 245 246 252 252 253 256 260 266 269 272 275 275 279 282 282 285 286 290 290 291 294 295 297 299 299 299 300 298 302 300 293 289 290 292 292 295 298 299 300 302 304 307
230 233 238 233 238 242 243 246 247 246 249 253 260 264 266 266 268 272 275 278 279 281 285 287 288 290 291 295 297 297 296 296 292 293 297 294 288 287 290 291 294 295 299 300 297 297 297 300 303
231 231 238 239 242 246 246 247 248 247 251 253 258 261 263 267 270 272 274 278 280 282 283 285 288 290 292 294 296 293 292 294 292 293 294 293 293 291 291 292 293 295 296 298 297 295 296 297 299
234 237 240 242 242 245 248 248 252 253 254 258 260 262 265 269 270 274 276 277 277 279 282 286 290 293 293 294 291 292 292 296 296 296 294 294 295 295 294 293 292 290 294 296 296 297 295 295 293
232 231 230 236 244 247 244 250 254 255 257 260 264 266 269 269 272 271 273 274 278 280 285 289 291 291 290 289 290 292 295 293 295 292 288 291 293 294 296 298 297 296 297 296 298 297 296 296 296
220 232 231 235 241 248 252 255 259 255 258 260 261 264 269 268 268 271 274 277 283 288 288 290 292 289 285 283 279 284 291 290 295 289 287 295 298 294 295 298 298 297 297 295 296 296 296 295 294
228 234 237 240 244 246 245 245 250 254 258 260 263 265 265 267 269 272 277 278 283 285 288 288 288 282 284 278 278 278 279 287 294 294 293 295 294 291 297 295 292 292 291 291 291 292 294 294 294
228 230 233 238 241 243 247 248 251 255 256 257 262 265 267 270 273 276 281 280 285 287 286 283 280 278 275 271 279 281 272 273 286 287 290 290 291 294 294 295 296 294 292 291 290 290 289 290 290
232 230 238 236 241 245 247 251 252 252 253 258 262 269 271 276 277 276 285 285 286 280 280 284 280 276 275 268 277 274 277 279 285 286 294 295 295 293 294 298 297 294 292 291 287 286 287 287 287
238 243 243 243 245 251 252 251 255 258 261 266 267 270 275 280 280 281 280 279 275 268 267 273 279 281 281 275 277 274 281 282 285 290 294 296 296 294 296 299 300 297 295 291 291 291 291 289 287
245 247 246 248 251 256 258 259 262 262 267 267 270 272 278 275 278 279 272 272 263 268 271 270 267 275 274 279 274 273 282 288 291 291 291 291 290 290 292 296 296 294 292 292 292 291 288 285 284
244 248 251 253 255 257 259 263 266 267 269 269 273 272 275 277 273 267 262 267 272 272 267 265 263 272 278 277 278 281 283 286 288 287 292 295 294 295 295 294 293 292 291 291 289 288 286 285 285
246 248 250 254 257 260 262 268 268 269 272 273 276 276 272 263 259 255 259 262 269 272 267 269 269 275 274 277 283 286 287 287 288 293 293 293 293 292 291 291 291 290 289 288 287 285 285 285 284
246 252 256 258 264 265 264 267 269 274 274 273 268 261 258 256 258 261 264 270 271 274 272 273 276 280 282 285 289 288 288 290 293 292 292 293 291 289 290 291 292 293 291 288 287 287 287 287 287
249 258 259 262 264 266 263 258 261 267 271 270 268 267 270 273 270 270 270 272 275 280 284 284 283 284 284 284 285 288 291 293 294 294 292 293 292 291 292 293 295 294 292 290 290 290 290 289 289
247 243 249 258 262 266 269 273 275 278 274 267 272 277 282 279 277 278 277 277 283 285 284 282 281 282 285 288 291 293 295 297 298 297 297 296 295 295 296 298 297 296 296 296 294 294 293 293 293
242 250 257 263 269 269 274 273 277 283 279 286 283 283 285 286 291 288 287 286 285 287 286 287 290 292 291 293 295 296 296 297 296 297 299 301 301 301 301 301 300 299 298 298 297 296 295 295 294
254 255 256 263 269 272 278 284 281 276 279 277 274 274 278 282 281 283 285 286 292 289 289 291 293 294 297 297 297 298 297 296 298 299 300 300 299 299 299 299 299 299 300 300 299 298 296 294 294
252 264 276 279 285 309 300 293 283 284 280 279 283 286 284 278 275 274 280 289 288 291 293 295 296 296 296 294 292 292 295 297 299 298 297 298 299 300 301 299 298 298 300 300 299 298 296 295 294
193 260 302 307 318 324 310 302 301 293 290 288 293 292 291 290 288 286 288 286 287 290 294 296 297 299 298 296 297 298 300 300 299 299 300 299 299 299 300 301 300 300 299 298 297 297 297 298 295
346 329 321 320 319 320 319 319 321 314 309 303 296 292 285 283 285 287 283 282 285 289 291 293 292 292 294 296 297 297 297 297 297 299 300 302 303 304 303 302 303 303 303 302 300 298 298 296 295
292 303 305 299 286 286 291 295 294 295 298 300 302 300 296 292 291 292 294 294 290 290 291 292 293 295 297 297 298 298 299 300 302 304 304 304 306 308 309 308 306 304 301 301 302 300 299 297 296
279 278 288 292 296 294 291 299 304 309 313 313 309 305 301 297 294 296 297 295 295 294 294 295 296 297 297 299 300 301 303 304 306 306 307 308 309 309 307 306 305 304 303 304 301 300 299 297 297
305 302 288 282 308 322 320 319 317 315 314 313 314 312 310 308 309 305 302 301 302 300 299 299 300 302 303 304 305 305 307 307 307 308 309 310 310 311 309 308 305 305 306 303 302 301 299 298 296